Regional Weather Roundup
Issued by NWS Huntsville, AL

Home | Current Version | Previous Version | Text Only | Print | Product List | Glossary On
Versions: 1 2 3 4 5 6 7 8 9 10 11 12 13 14 15 16 17 18 19 20 21 22 23 24 25 26 27 28 29 30 31 32 33 34 35 36 37 38 39 40 41 42 43 44 45 46 47 48 49
000
ASUS44 KHUN 010810
RWRHUN

WEATHER ROUNDUP FOR THE TENNESSEE VALLEY
NATIONAL WEATHER SERVICE HUNTSVILLE AL
300 AM CDT TUE SEP 01 2015

ALZ001>004-010900-
NORTHWEST ALABAMA

CITY           SKY/WX    TMP DP  RH WIND       PRES   REMARKS
COURTLAND HCN    N/A     66 N/A N/A CALM        N/A
RUSSELLVILLE     N/A     63 N/A N/A MISG        N/A
SHOALS AIRPORT CLEAR     67  64  90 CALM      30.11R
SHOALS TVA RES   N/A     66 N/A N/A MISG        N/A
$$

ALZ005>007-016-010900-
NORTH CENTRAL ALABAMA

CITY           SKY/WX    TMP DP  RH WIND       PRES   REMARKS
CULLMAN AG STN   N/A     64 N/A N/A CALM        N/A
DECATUR AP     CLEAR     65  65 100 CALM      30.11R
HUNTSVILLE AP  CLEAR     69  65  86 CALM      30.10S FOG
HUN NWS/UAH      N/A     70  66  87 NE1         N/A
MERIDIANVILLE  CLEAR     64  61  88 CALM      30.12R FOG
REDSTONE ARSN  CLEAR     68  68 100 NE2       30.10S FOG
VINEMONT AP    FAIR      64  63  94 CALM      30.13S
$$

ALZ008>010-010900-
NORTHEAST ALABAMA

CITY           SKY/WX    TMP DP  RH WIND       PRES   REMARKS
ALBERTVILLE    CLEAR     66  66 100 E3        30.11S FOG
FORT PAYNE     CLEAR     63  61  94 CALM      30.12R FOG
SCOTTSBORO AP  CLEAR     66  66 100 CALM      30.13R
SCOTTSBORO HCN   N/A     66 N/A N/A MISG        N/A
VALLEY HEAD      N/A     63 N/A N/A MISG        N/A
$$

TNZ076-096-097-010900-
SOUTHEASTERN MIDDLE TENNESSEE

CITY           SKY/WX    TMP DP  RH WIND       PRES   REMARKS
TULLAHOMA      CLEAR     64  63  94 CALM      30.14S
WINCHESTER     CLEAR     63  63 100 CALM      30.13R
$$

...SURROUNDING SITES...

CITY           SKY/WX    TMP DP  RH WIND       PRES   REMARKS
ATLANTA        FAIR      71  67  87 CALM      30.11S
ANNISTON       CLOUDY    71  68  90 NE3       30.10F
BIRMINGHAM     CLEAR     70  69  97 CALM      30.11S
CHATTANOOGA    CLEAR     69  67  93 CALM      30.11S
DALTON         CLEAR     64  64 100 CALM      30.11S
GADSDEN        PTCLDY    66  61  82 CALM      30.10R
GOLDEN TRNGL   CLEAR     70  64  83 CALM      30.07S
HALEYVILLE     FAIR      65  65 100 CALM      30.13S FOG
JACKSON TN     CLEAR     67  65  93 CALM      30.09R FOG
MEMPHIS        PTCLDY    76  68  76 S5        30.07S
NASHVILLE      CLEAR     70  65  84 CALM      30.11S
OXFORD MS      FAIR      66  66 100 E5        30.10R
ROME           CLEAR     66  65  96 CALM      30.10S
SAVANNAH       CLEAR     64  32  29 CALM      30.10S
TUPELO         CLEAR     70  68  93 CALM      30.08S
TUSCALOOSA     CLEAR     70  68  93 CALM      30.08R
$$

...GULF COAST WEATHER...

CITY           SKY/WX    TMP DP  RH WIND       PRES   REMARKS
GULFPORT       CLEAR     73  69  87 CALM      30.03F
PASCAGOULA     PTCLDY    69  68  96 CALM      30.04S
MOBILE         CLEAR     71  70  96 NW3       30.05S
GULF SHORES    SUNNY     73  72  97 CALM      30.04S
PENSACOLA      CLEAR     72  70  93 NW5       30.03S FOG
DESTIN         CLEAR     76  72  87 CALM      30.03S
PANAMA CITY    CLEAR     73  72  95 CALM      30.02S
APPALACHICOLA  PTCLDY    74  74 100 N3        30.02R
$$




USA.gov is the U.S. government's official web portal to all federal, state and local government web resources and services.